User: anonymous   Login
Location: Unspecified
(0.0000°N, 0.0000°E)
Time: 16:39:39
(UTC+02:00)
Language:

Cosmos 1733 Rocket - Orbit

View from above orbital plane
View from above orbital plane
View from above satellite
View from above satellite

Ground track
Ground track

The orbit data is extracted from the following two-line orbital elements,

1 16612U 86018B   14296.65229913  .00000733  00000-0  85656-4 0   525
2 16612 082.5147 123.9887 0019405 105.6487 298.7903 14.83663866447962
Epoch (UTC): 23 October 2014 15:39:18
Eccentricity: 0.0019405
inclination: 82.5147°
perigee height: 604 km
apogee height: 631 km
right ascension of ascending node: 123.9887°
argument of perigee: 105.6487°
revolutions per day: 14.83663866
mean anomaly at epoch: 298.7903°
orbit number at epoch: 44796

The dashed part of the orbit path shows where the satellite is in the earth's shadow,  

DLR